STARLINK-34899, 65323

Orbit data source: Space-Track

STARLINK-34899, 65323 is a payload satellite owned by SpaceX/Seattle (US) in LEO that was launched on Wed, 27 Aug 2025 UTC via an FALCON 9 launch vehicle from the Air Force Eastern Test Range (AFETR). Payload-class satellites include a variety of spacecraft equipped with specific instruments for various scientific and technological missions. These include communications satellites like Starlink; space stations such as the ISS; scientific satellites like the Hubble; Earth observation satellites from companies like Planet Labs, Umbra, and HawkEye 360; GPS; miniature CubeSats for education and research; and military/defense satellites.

Loading next visibility...
Identifier
65323, 2025-189A
Orbit
LEO
Country
Flag of USUS
Related business
Manufacturer
SpaceX/Seattle
Mission
Operational Commercial Communications
Bus & Motor
STARLINK V2MO, Unknown motor
Mass
575 kg wet, ~530 kg dry
Launch date (UTC)
2025-08-27 (10 months ago)
Launch vehicle
FALCON 9
Launch site
Air Force Eastern Test Range (AFETR)
Object type
Payload
Rocket body
Debris
Shape & HBR
Box + 2 Pan, 17.7 m
Radar Cross Section
36.964 m², Large (>1 m²)

Expand to show TLE details & history
Last TLE update: 17 hours ago

TLE from 17 hours ago
0 STARLINK-34899
1 65323U 25189A   26171.15474628  .00021666  00000-0  70732-3 0  9991
2 65323  53.1592  90.1504 0001270  92.1846 267.9300 15.31727395 46803
Epoch: 2026-06-20T03:42Z
TLE epoch observation values (Epoch: 2026-06-20T03:42:50.078Z)
Latitude
-0.0001°
Longitude
126.06823°
Altitude
471.59 km
Speed
7.631 km/s
True Right ascension
06h 00m 36s
True Declination
0° 00' 00"
Sunlit
Object was in daylight at epoch
Visualization orbit readout
Latitude
Unknown
Longitude
Unknown
Altitude
Unknown
Speed
Unknown
Apparent Right ascension
Unknown
Apparent Declination
Unknown
Sunlit
N/A
Visualization observer readout
Local Sidereal Time
07:13:33
Azimuth
Unknown
Elevation
Unknown
Doppler factor
Unknown
Orbital elements
Apogee altitude
471.785 km
Perigee altitude
470.045 km
Semi-major axis
6,849.052 km
Eccentricity
0.00013
Inclination
53.1592°
RAAN
90.1504°
Arg. of periapsis
92.1846°
True anomaly
267.91546°
Mean anomaly
267.93°
Eccentric anomaly
267.92273°
Mean motion
3.82911 °/min
Orbital period
94.02 mins
BSTAR
0.00070732
Loading maneuver chart data...
Computing Atmospheric mass density...
Loading historical data...
Loading historical data...
Loading historical data...
Loading historical data...
Loading historical data...
Loading historical data...
Loading historical data...

Documentation

Showing up to 5 results
|